| time (UTC) | temp F | wind direction | speed knots | gust knots | rain 1hr in | rain 24hr in | rain mn in | humidity % | barometer mb |
| 20260506141023 | 35 | 0 | 0.0 | 1.7 | 0.00 | 0.00 | 0.00 | 68 | 1019.8 |
| 20260506140523 | 34 | 0 | 0.0 | 1.7 | 0.00 | 0.00 | 0.00 | 71 | 1019.8 |
| 20260506140043 | 33 | 0 | 0.0 | 1.7 | 0.00 | 0.00 | 0.00 | 70 | 1019.7 |
| 20260506135530 | 32 | 0 | 0.0 | 2.6 | 0.00 | 0.00 | 0.00 | 72 | 1019.7 |
| 20260506135027 | 31 | 213 | 0.0 | 2.6 | 0.00 | 0.00 | 0.00 | 72 | 1019.7 |
| 20260506134606 | 31 | 213 | 0.9 | 2.6 | 0.00 | 0.00 | 0.00 | 73 | 1019.8 |
| 20260506134022 | 30 | 213 | 0.9 | 2.6 | 0.00 | 0.00 | 0.00 | 73 | 1019.8 |
| 20260506133521 | 30 | 213 | 0.9 | 2.6 | 0.00 | 0.00 | 0.00 | 73 | 1019.7 |
| 20260506133038 | 29 | 0 | 0.0 | 1.7 | 0.00 | 0.00 | 0.00 | 75 | 1019.7 |
| 20260506132523 | 29 | 0 | 0.0 | 2.6 | 0.00 | 0.00 | 0.00 | 76 | 1019.8 |
| 20260506132023 | 28 | 188 | 0.9 | 2.6 | 0.00 | 0.00 | 0.00 | 76 | 1019.7 |
| 20260506131546 | 28 | 188 | 0.9 | 2.6 | 0.00 | 0.00 | 0.00 | 77 | 1019.7 |
| 20260506131027 | 27 | 188 | 0.9 | 2.6 | 0.00 | 0.00 | 0.00 | 79 | 1019.6 |
| 20260506130532 | 27 | 188 | 0.9 | 2.6 | 0.00 | 0.00 | 0.00 | 81 | 1019.6 |
| 20260506130037 | 26 | 0 | 0.0 | 0.0 | 0.00 | 0.00 | 0.00 | 85 | 1019.5 |
| 20260506125528 | 25 | 0 | 0.0 | 0.0 | 0.00 | 0.00 | 0.00 | 85 | 1019.4 |
| 20260506125026 | 24 | 0 | 0.0 | 0.0 | 0.00 | 0.00 | 0.00 | 84 | 1019.4 |
| 20260506124536 | 23 | 0 | 0.0 | 0.0 | 0.00 | 0.00 | 0.00 | 84 | 1019.4 |
| 20260506124026 | 23 | 0 | 0.0 | 0.0 | 0.00 | 0.00 | 0.00 | 83 | 1019.1 |
| 20260506123526 | 23 | 0 | 0.0 | 0.0 | 0.00 | 0.00 | 0.00 | 83 | 1019.3 |
| 20260506123043 | 23 | 0 | 0.0 | 1.7 | 0.00 | 0.00 | 0.00 | 84 | 1019.2 |
| 20260506122527 | 23 | 0 | 0.0 | 1.7 | 0.00 | 0.00 | 0.00 | 83 | 1019.2 |
| 20260506122026 | 23 | 188 | 0.0 | 0.9 | 0.00 | 0.00 | 0.00 | 83 | 1019.2 |
| 20260506121539 | 23 | 0 | 0.0 | 0.0 | 0.00 | 0.00 | 0.00 | 82 | 1019.2 |
| 20260506121026 | 23 | 0 | 0.0 | 0.9 | 0.00 | 0.00 | 0.00 | 82 | 1019.1 |
| 20260506120530 | 23 | 0 | 0.0 | 1.7 | 0.00 | 0.00 | 0.00 | 82 | 1019.1 |
| 20260506120037 | 24 | 0 | 0.0 | 1.7 | 0.00 | 0.00 | 0.00 | 82 | 1019.1 |
| 20260506115526 | 24 | 188 | 0.0 | 1.7 | 0.00 | 0.00 | 0.00 | 81 | 1019.1 |
| 20260506115026 | 24 | 0 | 0.0 | 0.0 | 0.00 | 0.00 | 0.00 | 80 | 1019.0 |
| 20260506114544 | 24 | 0 | 0.0 | 0.0 | 0.00 | 0.00 | 0.00 | 80 | 1019.1 |
| 20260506114026 | 24 | 0 | 0.0 | 0.9 | 0.00 | 0.00 | 0.00 | 80 | 1019.1 |
| 20260506113526 | 24 | 0 | 0.0 | 1.7 | 0.00 | 0.00 | 0.00 | 80 | 1019.1 |
| 20260506113039 | 24 | 0 | 0.0 | 1.7 | 0.00 | 0.00 | 0.00 | 81 | 1019.0 |
| 20260506112527 | 24 | 188 | 0.0 | 1.7 | 0.00 | 0.00 | 0.00 | 81 | 1019.0 |
| 20260506112026 | 24 | 0 | 0.0 | 0.0 | 0.00 | 0.00 | 0.00 | 81 | 1019.0 |
| 20260506111537 | 24 | 0 | 0.0 | 0.0 | 0.00 | 0.00 | 0.00 | 81 | 1018.9 |
| 20260506111027 | 24 | 0 | 0.0 | 0.0 | 0.00 | 0.00 | 0.00 | 81 | 1018.8 |
| 20260506110526 | 25 | 0 | 0.0 | 0.9 | 0.00 | 0.00 | 0.00 | 80 | 1018.9 |
| 20260506110039 | 25 | 0 | 0.0 | 0.9 | 0.00 | 0.00 | 0.00 | 81 | 1018.8 |
| 20260506105526 | 25 | 0 | 0.0 | 1.7 | 0.00 | 0.00 | 0.00 | 82 | 1018.9 |
| 20260506105025 | 25 | 0 | 0.0 | 1.7 | 0.00 | 0.00 | 0.00 | 82 | 1018.8 |
| 20260506104541 | 24 | 0 | 0.0 | 0.0 | 0.00 | 0.00 | 0.00 | 81 | 1018.9 |
| 20260506104025 | 24 | 0 | 0.0 | 0.0 | 0.00 | 0.00 | 0.00 | 81 | 1018.8 |
| 20260506103526 | 25 | 0 | 0.0 | 0.0 | 0.00 | 0.00 | 0.00 | 80 | 1018.8 |
| 20260506103037 | 25 | 0 | 0.0 | 0.0 | 0.00 | 0.00 | 0.00 | 80 | 1018.9 |
| 20260506102526 | 25 | 0 | 0.0 | 0.9 | 0.00 | 0.00 | 0.00 | 80 | 1018.9 |
| 20260506102027 | 26 | 0 | 0.0 | 1.7 | 0.00 | 0.00 | 0.00 | 80 | 1018.8 |
| 20260506101536 | 26 | 187 | 0.0 | 1.7 | 0.00 | 0.00 | 0.00 | 80 | 1018.7 |
| 20260506101026 | 26 | 187 | 0.0 | 1.7 | 0.00 | 0.00 | 0.00 | 79 | 1018.8 |
| 20260506100526 | 26 | 0 | 0.0 | 1.7 | 0.00 | 0.00 | 0.00 | 79 | 1018.7 |
| 20260506100037 | 26 | 187 | 0.9 | 1.7 | 0.00 | 0.00 | 0.00 | 79 | 1018.7 |
| 20260506095526 | 26 | 0 | 0.0 | 1.7 | 0.00 | 0.00 | 0.00 | 79 | 1018.7 |
| 20260506095027 | 26 | 187 | 0.0 | 1.7 | 0.00 | 0.00 | 0.00 | 79 | 1018.7 |
| 20260506094541 | 26 | 0 | 0.0 | 2.6 | 0.00 | 0.00 | 0.00 | 79 | 1018.7 |
| 20260506094030 | 26 | 187 | 0.9 | 2.6 | 0.00 | 0.00 | 0.00 | 78 | 1018.8 |
| 20260506093527 | 27 | 187 | 1.7 | 2.6 | 0.00 | 0.00 | 0.00 | 79 | 1018.9 |
| 20260506093036 | 27 | 187 | 0.9 | 2.6 | 0.00 | 0.00 | 0.00 | 79 | 1018.8 |
| 20260506092528 | 27 | 187 | 0.9 | 2.6 | 0.00 | 0.00 | 0.00 | 79 | 1018.9 |
| 20260506092028 | 27 | 0 | 0.9 | 2.6 | 0.00 | 0.00 | 0.00 | 79 | 1018.9 |
| 20260506091537 | 27 | 187 | 0.9 | 3.5 | 0.00 | 0.00 | 0.00 | 79 | 1018.9 |
| 20260506091027 | 27 | 187 | 1.7 | 3.5 | 0.00 | 0.00 | 0.00 | 79 | 1018.8 |
| 20260506090526 | 28 | 187 | 0.9 | 2.6 | 0.00 | 0.00 | 0.00 | 79 | 1018.8 |
| 20260506090036 | 28 | 187 | 0.0 | 0.9 | 0.00 | 0.00 | 0.00 | 79 | 1018.7 |
| 20260506085527 | 28 | 0 | 0.0 | 0.9 | 0.00 | 0.00 | 0.00 | 78 | 1018.7 |
| 20260506085027 | 28 | 0 | 0.0 | 0.9 | 0.00 | 0.00 | 0.00 | 78 | 1018.8 |
| 20260506084536 | 28 | 0 | 0.0 | 0.9 | 0.00 | 0.00 | 0.00 | 78 | 1018.8 |
| 20260506084027 | 28 | 187 | 0.0 | 1.7 | 0.00 | 0.00 | 0.00 | 78 | 1018.8 |
| 20260506083527 | 28 | 187 | 0.0 | 1.7 | 0.00 | 0.00 | 0.00 | 78 | 1018.7 |
| 20260506083042 | 29 | 187 | 0.9 | 2.6 | 0.00 | 0.00 | 0.00 | 78 | 1018.7 |
| 20260506082527 | 29 | 187 | 0.9 | 2.6 | 0.00 | 0.00 | 0.00 | 78 | 1018.7 |
| 20260506082028 | 29 | 187 | 1.7 | 2.6 | 0.00 | 0.00 | 0.00 | 77 | 1018.7 |
| 20260506081546 | 29 | 187 | 0.9 | 1.7 | 0.00 | 0.00 | 0.00 | 78 | 1018.7 |
| 20260506081028 | 29 | 187 | 0.0 | 1.7 | 0.00 | 0.00 | 0.00 | 77 | 1018.7 |
| 20260506080529 | 29 | 0 | 0.9 | 1.7 | 0.00 | 0.00 | 0.00 | 76 | 1018.7 |
| 20260506073526 | 30 | 187 | 0.0 | 2.6 | 0.00 | 0.00 | 0.00 | 76 | 1018.9 |
| 20260506073037 | 30 | 187 | 0.9 | 2.6 | 0.00 | 0.00 | 0.00 | 76 | 1018.8 |
| 20260506072526 | 30 | 187 | 0.9 | 2.6 | 0.00 | 0.00 | 0.00 | 75 | 1018.8 |
| 20260506072029 | 30 | 187 | 0.0 | 2.6 | 0.00 | 0.00 | 0.00 | 75 | 1018.9 |
| 20260506071535 | 30 | 188 | 0.9 | 2.6 | 0.00 | 0.00 | 0.00 | 75 | 1018.9 |
| 20260506071027 | 30 | 187 | 0.0 | 2.6 | 0.00 | 0.00 | 0.00 | 74 | 1018.9 |
| 20260506070525 | 30 | 0 | 0.0 | 0.0 | 0.00 | 0.00 | 0.00 | 73 | 1019.0 |
| 20260506062027 | 31 | 0 | 0.0 | 0.0 | 0.00 | 0.00 | 0.00 | 72 | 1018.9 |
| 20260506061541 | 32 | 0 | 0.0 | 0.0 | 0.00 | 0.00 | 0.00 | 71 | 1019.1 |
| 20260506061024 | 32 | 0 | 0.0 | 0.0 | 0.00 | 0.00 | 0.00 | 71 | 1018.9 |
| 20260506060528 | 33 | 0 | 0.0 | 0.0 | 0.00 | 0.00 | 0.00 | 71 | 1018.8 |
| 20260506051027 | 36 | 0 | 0.0 | 0.0 | 0.00 | 0.00 | 0.00 | 54 | 1018.5 |
| 20260506050528 | 36 | 0 | 0.0 | 0.0 | 0.00 | 0.00 | 0.00 | 53 | 1018.5 |
| 20260506045027 | 37 | 0 | 0.0 | 2.6 | 0.00 | 0.00 | 0.00 | 52 | 1018.5 |
| 20260506044539 | 37 | 0 | 0.0 | 4.3 | 0.00 | 0.00 | 0.00 | 51 | 1018.5 |
| 20260506044029 | 38 | 27 | 0.9 | 4.3 | 0.00 | 0.00 | 0.00 | 50 | 1018.7 |
| 20260506043526 | 38 | 24 | 0.9 | 4.3 | 0.00 | 0.00 | 0.00 | 50 | 1018.5 |
| 20260506043036 | 38 | 349 | 0.9 | 2.6 | 0.00 | 0.00 | 0.00 | 51 | 1018.5 |
| 20260506042526 | 38 | 0 | 0.9 | 4.3 | 0.00 | 0.00 | 0.00 | 51 | 1018.5 |
| 20260506042026 | 38 | 17 | 0.9 | 4.3 | 0.00 | 0.00 | 0.00 | 49 | 1018.5 |
| 20260506041539 | 38 | 7 | 1.7 | 5.2 | 0.00 | 0.00 | 0.00 | 49 | 1018.4 |
| 20260506041027 | 38 | 12 | 1.7 | 5.2 | 0.00 | 0.00 | 0.00 | 49 | 1018.4 |
| 20260506040526 | 38 | 47 | 1.7 | 3.5 | 0.00 | 0.00 | 0.00 | 50 | 1018.3 |
| 20260506040038 | 38 | 41 | 1.7 | 6.1 | 0.00 | 0.00 | 0.00 | 51 | 1018.2 |
| 20260506035551 | 38 | 25 | 1.7 | 6.1 | 0.00 | 0.00 | 0.00 | 51 | 1018.3 |
| 20260506035026 | 38 | 39 | 1.7 | 4.3 | 0.00 | 0.00 | 0.00 | 51 | 1018.2 |
| 20260506034537 | 38 | 37 | 1.7 | 5.2 | 0.00 | 0.00 | 0.00 | 50 | 1018.4 |
| 20260506034027 | 38 | 30 | 1.7 | 5.2 | 0.00 | 0.00 | 0.00 | 50 | 1018.2 |
| 20260506033528 | 38 | 23 | 2.6 | 5.2 | 0.00 | 0.00 | 0.00 | 49 | 1018.2 |
| 20260506033039 | 38 | 23 | 2.6 | 7.0 | 0.00 | 0.00 | 0.00 | 50 | 1018.1 |
| 20260506032524 | 39 | 39 | 2.6 | 7.0 | 0.00 | 0.00 | 0.00 | 48 | 1018.0 |
| 20260506032024 | 39 | 27 | 3.5 | 7.0 | 0.00 | 0.00 | 0.00 | 48 | 1018.1 |
| 20260506031539 | 39 | 359 | 2.6 | 6.1 | 0.00 | 0.00 | 0.00 | 48 | 1017.9 |
| 20260506031028 | 39 | 359 | 2.6 | 6.1 | 0.00 | 0.00 | 0.00 | 48 | 1017.9 |
| 20260506030526 | 39 | 23 | 3.5 | 6.1 | 0.00 | 0.00 | 0.00 | 48 | 1017.8 |
| 20260506030037 | 39 | 30 | 3.5 | 6.1 | 0.00 | 0.00 | 0.00 | 48 | 1017.7 |
| 20260506025529 | 39 | 30 | 2.6 | 8.7 | 0.00 | 0.00 | 0.00 | 48 | 1017.7 |
| 20260506025026 | 39 | 359 | 3.5 | 8.7 | 0.00 | 0.00 | 0.00 | 47 | 1017.5 |
| 20260506024545 | 39 | 50 | 1.7 | 4.3 | 0.00 | 0.00 | 0.00 | 48 | 1017.5 |
| 20260506024026 | 39 | 6 | 1.7 | 4.3 | 0.00 | 0.00 | 0.00 | 47 | 1017.3 |
| 20260506023526 | 40 | 15 | 1.7 | 7.8 | 0.00 | 0.00 | 0.00 | 47 | 1017.1 |
| 20260506023041 | 40 | 49 | 0.9 | 7.8 | 0.00 | 0.00 | 0.00 | 47 | 1017.1 |
| 20260506022530 | 40 | 23 | 2.6 | 7.8 | 0.00 | 0.00 | 0.00 | 46 | 1017.0 |
| 20260506022027 | 40 | 359 | 2.6 | 7.8 | 0.00 | 0.00 | 0.00 | 46 | 1016.8 |
| 20260506021538 | 41 | 1 | 3.5 | 9.6 | 0.00 | 0.00 | 0.00 | 45 | 1016.7 |
| 20260506021025 | 41 | 11 | 4.3 | 9.6 | 0.00 | 0.00 | 0.00 | 45 | 1016.7 |
| 20260506020526 | 41 | 13 | 4.3 | 10.4 | 0.00 | 0.00 | 0.00 | 45 | 1016.6 |
| 20260506020040 | 41 | 15 | 4.3 | 12.2 | 0.00 | 0.00 | 0.00 | 45 | 1016.4 |
| 20260506015526 | 42 | 11 | 4.3 | 12.2 | 0.00 | 0.00 | 0.00 | 44 | 1016.4 |
| 20260506015029 | 42 | 354 | 5.2 | 12.2 | 0.00 | 0.00 | 0.00 | 44 | 1016.3 |
| 20260506014537 | 42 | 1 | 4.3 | 13.0 | 0.00 | 0.00 | 0.00 | 44 | 1016.3 |
| 20260506014026 | 42 | 360 | 4.3 | 13.0 | 0.00 | 0.00 | 0.00 | 45 | 1016.2 |
| 20260506013526 | 42 | 349 | 4.3 | 13.0 | 0.00 | 0.00 | 0.00 | 44 | 1016.1 |
| 20260506013038 | 43 | 77 | 4.3 | 13.9 | 0.00 | 0.00 | 0.00 | 46 | 1016.1 |
| 20260506012524 | 43 | 37 | 4.3 | 13.9 | 0.00 | 0.00 | 0.00 | 46 | 1016.0 |
| 20260506012026 | 43 | 49 | 6.1 | 12.2 | 0.00 | 0.00 | 0.00 | 45 | 1016.0 |
| 20260506011602 | 43 | 41 | 5.2 | 12.2 | 0.00 | 0.00 | 0.00 | 45 | 1016.0 |
| 20260506011026 | 43 | 25 | 6.1 | 13.9 | 0.00 | 0.00 | 0.00 | 45 | 1015.8 |
| 20260506010526 | 44 | 22 | 7.0 | 13.9 | 0.00 | 0.00 | 0.00 | 46 | 1015.7 |
| 20260506010037 | 44 | 44 | 6.1 | 12.2 | 0.00 | 0.00 | 0.00 | 46 | 1015.7 |
| 20260506005525 | 44 | 13 | 7.0 | 12.2 | 0.00 | 0.00 | 0.00 | 46 | 1015.6 |
| 20260506005025 | 44 | 13 | 5.2 | 12.2 | 0.00 | 0.00 | 0.00 | 45 | 1015.5 |
| 20260506004552 | 44 | 33 | 7.0 | 13.0 | 0.00 | 0.00 | 0.00 | 46 | 1015.5 |
| 20260506004026 | 44 | 27 | 6.1 | 13.9 | 0.00 | 0.00 | 0.00 | 48 | 1015.5 |
| 20260506003524 | 44 | 63 | 9.6 | 13.9 | 0.00 | 0.00 | 0.00 | 47 | 1015.5 |
| 20260506003036 | 44 | 1 | 7.0 | 12.2 | 0.00 | 0.00 | 0.00 | 48 | 1015.5 |
| 20260506002524 | 43 | 6 | 7.8 | 13.0 | 0.00 | 0.00 | 0.00 | 49 | 1015.5 |
| 20260506002024 | 43 | 32 | 7.0 | 13.0 | 0.00 | 0.00 | 0.00 | 49 | 1015.4 |
| 20260506001544 | 43 | 30 | 7.8 | 13.0 | 0.00 | 0.00 | 0.00 | 49 | 1015.5 |
| 20260506001027 | 43 | 50 | 8.7 | 13.0 | 0.00 | 0.00 | 0.00 | 49 | 1015.5 |
| 20260506000527 | 43 | 56 | 7.0 | 14.8 | 0.00 | 0.00 | 0.00 | 50 | 1015.3 |
| 20260506000108 | 43 | 66 | 7.8 | 14.8 | 0.00 | 0.00 | 0.00 | 50 | 1015.4 |
| 20260505235527 | 43 | 22 | 7.0 | 12.2 | 0.00 | 0.00 | 0.00 | 50 | 1015.4 |
| 20260505235027 | 43 | 45 | 7.0 | 11.3 | 0.00 | 0.00 | 0.00 | 52 | 1015.2 |
| 20260505234544 | 43 | 51 | 5.2 | 11.3 | 0.00 | 0.00 | 0.00 | 53 | 1015.1 |
| 20260505234027 | 43 | 53 | 4.3 | 16.5 | 0.00 | 0.00 | 0.00 | 53 | 1015.2 |
| 20260505233528 | 43 | 5 | 7.8 | 16.5 | 0.00 | 0.00 | 0.00 | 52 | 1015.3 |
| 20260505233037 | 43 | 53 | 10.4 | 16.5 | 0.00 | 0.00 | 0.00 | 51 | 1015.0 |
| 20260505232526 | 43 | 44 | 8.7 | 15.6 | 0.00 | 0.00 | 0.00 | 51 | 1015.1 |
| 20260505232024 | 44 | 41 | 7.0 | 17.4 | 0.00 | 0.00 | 0.00 | 49 | 1015.0 |
| 20260505231537 | 44 | 27 | 10.4 | 17.4 | 0.00 | 0.00 | 0.00 | 51 | 1014.7 |
| 20260505231024 | 43 | 20 | 8.7 | 16.5 | 0.00 | 0.00 | 0.00 | 53 | 1014.7 |
| 20260505230524 | 43 | 8 | 9.6 | 15.6 | 0.00 | 0.00 | 0.00 | 52 | 1014.6 |
| 20260505230058 | 43 | 75 | 8.7 | 16.5 | 0.00 | 0.00 | 0.00 | 52 | 1014.8 |
| 20260505225528 | 43 | 27 | 7.0 | 18.2 | 0.00 | 0.00 | 0.00 | 52 | 1014.9 |
| 20260505225024 | 43 | 354 | 10.4 | 18.2 | 0.00 | 0.00 | 0.00 | 51 | 1014.8 |
| 20260505224541 | 43 | 29 | 10.4 | 18.2 | 0.00 | 0.00 | 0.00 | 52 | 1014.8 |
| 20260505224023 | 43 | 20 | 10.4 | 18.2 | 0.00 | 0.00 | 0.00 | 52 | 1014.8 |
| 20260505223525 | 43 | 41 | 11.3 | 18.2 | 0.00 | 0.00 | 0.00 | 52 | 1014.6 |
| 20260505223039 | 44 | 39 | 7.8 | 18.2 | 0.00 | 0.00 | 0.00 | 49 | 1014.6 |
| 20260505222526 | 45 | 34 | 10.4 | 18.2 | 0.00 | 0.00 | 0.00 | 45 | 1014.5 |
| 20260505222025 | 47 | 53 | 7.0 | 17.4 | 0.00 | 0.00 | 0.00 | 42 | 1014.4 |
| 20260505221536 | 48 | 21 | 7.8 | 18.2 | 0.00 | 0.00 | 0.00 | 43 | 1014.3 |
| 20260505221024 | 46 | 49 | 5.2 | 18.2 | 0.00 | 0.00 | 0.00 | 45 | 1014.4 |
| 20260505220523 | 46 | 43 | 8.7 | 20.9 | 0.00 | 0.00 | 0.00 | 47 | 1014.2 |
| 20260505220039 | 45 | 30 | 7.0 | 20.9 | 0.00 | 0.00 | 0.00 | 47 | 1014.2 |
| 20260505215523 | 46 | 32 | 10.4 | 19.1 | 0.00 | 0.00 | 0.00 | 47 | 1014.2 |
| 20260505215023 | 46 | 53 | 7.8 | 20.0 | 0.00 | 0.00 | 0.00 | 49 | 1014.2 |
| 20260505214542 | 45 | 41 | 12.2 | 20.0 | 0.00 | 0.00 | 0.00 | 52 | 1014.3 |
| 20260505214024 | 46 | 14 | 11.3 | 19.1 | 0.00 | 0.00 | 0.00 | 49 | 1014.2 |
| 20260505213525 | 46 | 14 | 12.2 | 19.1 | 0.00 | 0.00 | 0.00 | 47 | 1014.3 |
| 20260505213039 | 47 | 46 | 8.7 | 13.9 | 0.00 | 0.00 | 0.00 | 48 | 1014.5 |
| 20260505212524 | 48 | 9 | 6.1 | 12.2 | 0.00 | 0.00 | 0.00 | 34 | 1014.4 |
| 20260505212023 | 48 | 322 | 4.3 | 13.9 | 0.00 | 0.00 | 0.00 | 45 | 1014.5 |
| 20260505211540 | 47 | 14 | 7.0 | 13.9 | 0.00 | 0.00 | 0.00 | 45 | 1014.3 |
| 20260505211022 | 48 | 49 | 7.0 | 13.0 | 0.00 | 0.00 | 0.00 | 43 | 1014.4 |
| 20260505210528 | 47 | 32 | 7.0 | 12.2 | 0.00 | 0.00 | 0.00 | 42 | 1014.4 |
| 20260505210042 | 48 | 66 | 3.5 | 10.4 | 0.00 | 0.00 | 0.00 | 43 | 1014.5 |
| 20260505205525 | 49 | 331 | 6.1 | 10.4 | 0.00 | 0.00 | 0.00 | 45 | 1014.6 |
| 20260505205028 | 49 | 359 | 5.2 | 9.6 | 0.00 | 0.00 | 0.00 | 34 | 1014.6 |
| 20260505204545 | 49 | 354 | 4.3 | 11.3 | 0.00 | 0.00 | 0.00 | 38 | 1014.5 |
| 20260505204023 | 47 | 356 | 4.3 | 17.4 | 0.00 | 0.00 | 0.00 | 43 | 1014.6 |
| 20260505203525 | 45 | 5 | 10.4 | 17.4 | 0.00 | 0.00 | 0.00 | 51 | 1014.9 |
| 20260505203052 | 45 | 6 | 7.8 | 15.6 | 0.00 | 0.00 | 0.00 | 53 | 1014.8 |
| 20260505202523 | 45 | 61 | 7.0 | 19.1 | 0.00 | 0.00 | 0.00 | 57 | 1014.8 |
| 20260505202023 | 43 | 28 | 9.6 | 19.1 | 0.00 | 0.00 | 0.00 | 56 | 1014.9 |
| 20260505201541 | 44 | 54 | 11.3 | 18.2 | 0.00 | 0.00 | 0.00 | 56 | 1015.0 |
| 20260505201024 | 45 | 65 | 11.3 | 18.2 | 0.00 | 0.00 | 0.00 | 55 | 1015.0 |
| 20260505200524 | 47 | 43 | 7.8 | 17.4 | 0.00 | 0.00 | 0.00 | 52 | 1015.0 |
| 20260505200038 | 49 | 338 | 7.8 | 14.8 | 0.00 | 0.00 | 0.00 | 42 | 1015.0 |
| 20260505195522 | 48 | 359 | 7.8 | 15.6 | 0.00 | 0.00 | 0.00 | 45 | 1014.9 |
| 20260505195022 | 47 | 321 | 6.1 | 17.4 | 0.00 | 0.00 | 0.00 | 46 | 1015.1 |
| 20260505194550 | 47 | 354 | 8.7 | 17.4 | 0.00 | 0.00 | 0.00 | 43 | 1014.9 |
| 20260505194026 | 47 | 342 | 8.7 | 15.6 | 0.00 | 0.00 | 0.00 | 46 | 1014.9 |
| 20260505193523 | 48 | 360 | 6.1 | 13.9 | 0.00 | 0.00 | 0.00 | 46 | 1014.9 |
| 20260505193038 | 48 | 319 | 5.2 | 13.0 | 0.00 | 0.00 | 0.00 | 45 | 1014.8 |
| 20260505192526 | 47 | 337 | 4.3 | 12.2 | 0.00 | 0.00 | 0.00 | 47 | 1015.0 |
| 20260505192024 | 47 | 341 | 7.0 | 14.8 | 0.00 | 0.00 | 0.00 | 46 | 1015.1 |
| 20260505191553 | 47 | 328 | 7.8 | 14.8 | 0.00 | 0.00 | 0.00 | 46 | 1015.0 |
| 20260505191025 | 48 | 345 | 7.8 | 14.8 | 0.00 | 0.00 | 0.00 | 44 | 1015.2 |
| 20260505190527 | 48 | 324 | 7.0 | 14.8 | 0.00 | 0.00 | 0.00 | 46 | 1015.1 |
| 20260505190041 | 48 | 347 | 7.0 | 14.8 | 0.00 | 0.00 | 0.00 | 43 | 1015.1 |
| 20260505185523 | 48 | 357 | 7.0 | 18.2 | 0.00 | 0.00 | 0.00 | 42 | 1015.2 |
| 20260505185025 | 48 | 342 | 7.8 | 18.2 | 0.00 | 0.00 | 0.00 | 41 | 1015.2 |
| 20260505184538 | 48 | 355 | 7.8 | 13.9 | 0.00 | 0.00 | 0.00 | 42 | 1015.1 |
| 20260505184025 | 48 | 332 | 4.3 | 13.9 | 0.00 | 0.00 | 0.00 | 43 | 1015.1 |
| 20260505183526 | 48 | 288 | 5.2 | 12.2 | 0.00 | 0.00 | 0.00 | 43 | 1015.2 |
| 20260505183043 | 47 | 323 | 7.0 | 12.2 | 0.00 | 0.00 | 0.00 | 44 | 1015.3 |
| 20260505182523 | 47 | 292 | 4.3 | 13.0 | 0.00 | 0.00 | 0.00 | 44 | 1015.3 |
| 20260505182024 | 47 | 332 | 4.3 | 13.0 | 0.00 | 0.00 | 0.00 | 44 | 1015.4 |
| 20260505181538 | 46 | 283 | 6.1 | 13.0 | 0.00 | 0.00 | 0.00 | 44 | 1015.4 |
| 20260505181025 | 47 | 322 | 5.2 | 13.0 | 0.00 | 0.00 | 0.00 | 44 | 1015.4 |
| 20260505180523 | 47 | 356 | 7.0 | 16.5 | 0.00 | 0.00 | 0.00 | 44 | 1015.4 |
| 20260505180047 | 47 | 290 | 5.2 | 16.5 | 0.00 | 0.00 | 0.00 | 46 | 1015.3 |
| 20260505175526 | 46 | 308 | 5.2 | 16.5 | 0.00 | 0.00 | 0.00 | 44 | 1015.4 |
| 20260505175026 | 46 | 330 | 5.2 | 12.2 | 0.00 | 0.00 | 0.00 | 45 | 1015.6 |
| 20260505174540 | 46 | 353 | 4.3 | 12.2 | 0.00 | 0.00 | 0.00 | 46 | 1015.6 |
| 20260505174022 | 46 | 347 | 5.2 | 11.3 | 0.00 | 0.00 | 0.00 | 45 | 1015.6 |
| 20260505173526 | 47 | 334 | 4.3 | 12.2 | 0.00 | 0.00 | 0.00 | 47 | 1015.7 |
| 20260505173036 | 46 | 340 | 5.2 | 12.2 | 0.00 | 0.00 | 0.00 | 48 | 1015.7 |
| 20260505172522 | 45 | 339 | 5.2 | 12.2 | 0.00 | 0.00 | 0.00 | 51 | 1015.7 |
| 20260505172022 | 43 | 306 | 4.3 | 14.8 | 0.00 | 0.00 | 0.00 | 50 | 1015.7 |
| 20260505171538 | 43 | 360 | 7.8 | 14.8 | 0.00 | 0.00 | 0.00 | 49 | 1015.8 |
| 20260505171024 | 44 | 343 | 5.2 | 13.0 | 0.00 | 0.00 | 0.00 | 48 | 1015.9 |
| 20260505170525 | 44 | 343 | 5.2 | 13.0 | 0.00 | 0.00 | 0.00 | 46 | 1015.7 |
| 20260505170037 | 44 | 345 | 6.1 | 13.0 | 0.00 | 0.00 | 0.00 | 44 | 1015.8 |
| 20260505165523 | 45 | 335 | 4.3 | 12.2 | 0.00 | 0.00 | 0.00 | 44 | 1015.8 |
| 20260505165023 | 45 | 357 | 6.1 | 12.2 | 0.00 | 0.00 | 0.00 | 43 | 1015.9 |
| 20260505164536 | 45 | 359 | 5.2 | 10.4 | 0.00 | 0.00 | 0.00 | 43 | 1016.0 |
| 20260505164024 | 45 | 352 | 4.3 | 10.4 | 0.00 | 0.00 | 0.00 | 44 | 1016.0 |
| 20260505163523 | 45 | 356 | 6.1 | 10.4 | 0.00 | 0.00 | 0.00 | 43 | 1016.0 |
| 20260505163037 | 44 | 321 | 4.3 | 14.8 | 0.00 | 0.00 | 0.00 | 42 | 1015.8 |
| 20260505162524 | 45 | 352 | 4.3 | 14.8 | 0.00 | 0.00 | 0.00 | 41 | 1015.9 |
| 20260505162023 | 46 | 351 | 5.2 | 13.9 | 0.00 | 0.00 | 0.00 | 43 | 1015.8 |
| 20260505161537 | 45 | 302 | 5.2 | 12.2 | 0.00 | 0.00 | 0.00 | 42 | 1016.0 |
| 20260505161023 | 45 | 321 | 4.3 | 10.4 | 0.00 | 0.00 | 0.00 | 42 | 1015.9 |
| 20260505160524 | 46 | 357 | 5.2 | 10.4 | 0.00 | 0.00 | 0.00 | 41 | 1015.8 |
| 20260505153036 | 45 | 35 | 1.7 | 5.2 | 0.00 | 0.00 | 0.00 | 43 | 1016.0 |
| 20260505152524 | 45 | 338 | 0.9 | 4.3 | 0.00 | 0.00 | 0.00 | 44 | 1016.1 |
| 20260505152026 | 44 | 34 | 0.9 | 3.5 | 0.00 | 0.00 | 0.00 | 48 | 1016.2 |
| 20260505151540 | 43 | 256 | 0.9 | 3.5 | 0.00 | 0.00 | 0.00 | 48 | 1016.2 |
| 20260505151026 | 43 | 127 | 0.9 | 3.5 | 0.00 | 0.00 | 0.00 | 51 | 1016.2 |
| 20260505150523 | 42 | 175 | 0.9 | 3.5 | 0.00 | 0.00 | 0.00 | 50 | 1016.2 |